Location: Clermont
(50.2608°N, 4.3172°E)
Time: 21:41:29
(UTC+00:00)

Cosmos 2227 Rocket - Pass Details

Date: 13 August 2020
Orbit: 840 x 844 km, 71.0° (Epoch: 22 September)

Event Time Altitude Azimuth Distance (km) Brightness Sun altitude
Exits shadow 23:51:10 45° 113° (ESE) 1,136 2.6 -25.5°
Maximum altitude 23:51:17 45° 110° (ESE) 1,135 2.7 -25.5°
Drops below altitude 10° 23:56:39 10° 39° (NE) 2,472 5.3 -25.4°
Sets 23:59:11 0° 33° (NNE) 3,411 6.3 -25.4°
